OBJECT F, 59778

Orbit data source: Space-Track

You're viewing an Uncataloged Satellite

Recently launched and/or uncataloged satellites may have evolving metadata. Metadata may include but not limited to: Owner, Maufacturer, Bus, Motor, and Mission.

OBJECT F, 59778 is a satellite owned by Sitronics (CIS) in SSO that was launched on Thu, 16 May 2024 UTC via a SOYUZ-2-1B launch vehicle from the Plesetsk Missile And Space Complex (PKMTR). Unknown objects in Earth's orbit typically refer to objects detected orbiting the Earth but have not yet been identified or cataloged. These objects could be anything from previously untracked satellites, spent rocket stages, debris from satellite collisions, or even natural meteoroids temporarily captured by Earth's gravity.

Loading next visibility...
Identifier
59778, 2024-092F
Orbit
SSO
Last TLE update
11 hours ago
Origin
Manufacturer
Sputniks
Mission
Operational spacecraft
Bus & Motor
CUBESAT 3U?, Unknown motor
Mass
3 kg wet, 3 kg dry
Launch date (UTC)
2024-05-16 (1 year ago)
Launch vehicle
SOYUZ-2-1B
Launch site
Plesetsk Missile And Space Complex (PKMTR)
Object type
Unknown
Shape & HBR
Unknown
Radar Cross Section
Small (<0.1 m²)

Expand to show TLE details & history

TLE from 11 hours ago
0 OBJECT F
1 59778U 24092F   25188.90424856  .00008399  00000-0  35724-3 0  9998
2 59778  97.6237 307.5736 0008635 284.8613  75.1667 15.23246617 63128
Epoch: 2025-07-07T21:42Z
TLE epoch observation values (Epoch: 2025-07-07T21:42:07.075Z)
Latitude
0.00001°
Longitude
55.93722°
Altitude
497.629 km
Speed
7.617 km/s
True Right ascension
20h 30m 17s
True Declination
0° 00' 00"
Sunlit
Object was in full shadow at epoch
Visualization orbit readout
Latitude
-78.94722°
Longitude
-166.57179°
Altitude
518.452 km
Speed
7.606 km/s
Apparent Right ascension
07h 50m 39s
Apparent Declination
-61° 07' 60"
Sunlit
Object is in daylight
Visualization observer readout
Local Sidereal Time
20:24:11
Azimuth
169.088° S
Elevation
-68.165°
Doppler factor
1
Orbital elements
Apogee altitude
498.96 km
Perigee altitude
487.093 km
Semi-major axis
6,871.164 km
Eccentricity
0.00086
Inclination
97.6237°
RAAN
307.5736°
Arg. of periapsis
284.8613°
True anomaly
Unknown
Mean anomaly
75.1667°
Eccentric anomaly
Unknown
Mean motion
3.81064 °/min
Orbital period
94.47 mins
BSTAR
0.00035724
Loading maneuver chart data...
Loading SW <> Apogee altitude chart data...
Loading historical data...
Loading historical data...
Loading historical data...
Loading historical data...
Loading historical data...
Loading historical data...
Loading historical data...

OBJECT F Visibility forecast

Observer location: undefined°, undefined°

Span
Click to sort rows by Start time (UTC) header in descending order
Start Az.
Max El. time (UTC)
Max El. Az.
Max El.
End time (UTC)
End Az.
4 mins2025-07-08 08:52:29.936Z229.118° WSW2025-07-08 08:54:29.936Z266.77° W16.876°2025-07-08 08:56:29.936Z303.653° NW
5 mins2025-07-08 20:21:29.936Z44.455° NE2025-07-08 20:23:29.936Z101.678° ESE30.239°2025-07-08 20:26:29.936Z164.233° S
|